Time,TemperatureF,DewpointF,PressureIn,WindDirection,WindDirectionDegrees,WindSpeedMPH,WindSpeedGustMPH,Humidity,HourlyPrecipIn,Conditions,Clouds,dailyrainin,SoftwareType,DateUTC
2013-02-05 00:01:00,48.4,44.4,29.85,NNW,338,2.5,2.5,86,0.00,,---,0.00,VWS V14.00,2013-02-05 08:01:00,
2013-02-05 00:06:00,48.6,44.6,29.85,NNW,338,1.6,3.6,86,0.00,,---,0.00,VWS V14.00,2013-02-05 08:06:00,
2013-02-05 00:11:00,48.6,44.3,29.85,West,270,5.4,5.4,85,0.00,,---,0.00,VWS V14.00,2013-02-05 08:11:00,
2013-02-05 00:17:00,48.2,43.9,29.85,WNW,292,3.6,3.6,85,0.00,,---,0.00,VWS V14.00,2013-02-05 08:17:00,
2013-02-05 00:22:00,48.4,44.1,29.85,NNW,338,2.7,4.7,85,0.00,,---,0.00,VWS V14.00,2013-02-05 08:22:00,
2013-02-05 00:27:00,48.4,44.1,29.85,WNW,292,3.4,4.3,85,0.00,,---,0.00,VWS V14.00,2013-02-05 08:27:00,
2013-02-05 00:32:00,48.4,44.1,29.82,NNW,338,2.2,4.0,85,0.00,,---,0.00,VWS V14.00,2013-02-05 08:32:00,
2013-02-05 00:38:00,48.4,44.1,29.82,NW,315,5.6,5.6,85,0.00,,---,0.00,VWS V14.00,2013-02-05 08:38:00,
2013-02-05 00:43:00,48.4,44.1,29.82,SW,225,2.7,2.7,85,0.00,,---,0.00,VWS V14.00,2013-02-05 08:43:00,
2013-02-05 00:48:00,48.4,44.1,29.82,West,270,0.0,2.0,85,0.00,,---,0.00,VWS V14.00,2013-02-05 08:48:00,
2013-02-05 00:53:00,48.6,44.3,29.82,NNW,338,0.9,1.6,85,0.00,,---,0.00,VWS V14.00,2013-02-05 08:53:00,
2013-02-05 00:59:00,48.6,44.3,29.82,NNW,338,1.3,1.3,85,0.00,,---,0.00,VWS V14.00,2013-02-05 08:59:00,
2013-02-05 01:05:00,48.6,44.0,29.82,North,0,0.0,0.9,84,0.00,,---,0.00,VWS V14.00,2013-02-05 09:05:00,
2013-02-05 01:10:00,48.7,44.4,29.82,WSW,248,0.0,1.6,85,0.00,,---,0.00,VWS V14.00,2013-02-05 09:10:00,
2013-02-05 01:16:00,48.7,44.4,29.82,NNW,338,0.0,0.0,85,0.00,,---,0.00,VWS V14.00,2013-02-05 09:16:00,
2013-02-05 01:21:00,48.9,44.6,29.82,NW,315,2.0,2.0,85,0.00,,---,0.00,VWS V14.00,2013-02-05 09:21:00,
2013-02-05 01:27:00,48.9,44.6,29.82,WNW,292,0.0,1.3,85,0.00,,---,0.00,VWS V14.00,2013-02-05 09:27:00,
2013-02-05 01:32:00,48.9,44.6,29.82,NNE,22,0.0,0.0,85,0.00,,---,0.00,VWS V14.00,2013-02-05 09:32:00,
2013-02-05 01:37:00,48.9,44.6,29.82,WNW,292,1.6,1.6,85,0.00,,---,0.00,VWS V14.00,2013-02-05 09:37:00,
2013-02-05 01:42:00,48.9,44.3,29.82,WNW,292,2.0,4.0,84,0.00,,---,0.00,VWS V14.00,2013-02-05 09:42:00,
2013-02-05 01:48:00,48.7,44.1,29.82,NNW,338,2.7,2.7,84,0.00,,---,0.00,VWS V14.00,2013-02-05 09:48:00,
2013-02-05 01:53:00,48.7,44.1,29.82,NW,315,2.5,2.5,84,0.00,,---,0.00,VWS V14.00,2013-02-05 09:53:00,
2013-02-05 01:59:00,48.6,44.0,29.82,WNW,292,4.0,4.0,84,0.00,,---,0.00,VWS V14.00,2013-02-05 09:59:00,
2013-02-05 02:04:00,48.6,44.0,29.82,WNW,292,3.1,3.1,84,0.00,,---,0.00,VWS V14.00,2013-02-05 10:04:00,
2013-02-05 02:09:00,48.4,43.5,29.82,SSW,202,4.0,4.0,83,0.00,,---,0.00,VWS V14.00,2013-02-05 10:09:00,
2013-02-05 02:14:00,48.2,43.3,29.82,NW,315,4.9,4.9,83,0.00,,---,0.00,VWS V14.00,2013-02-05 10:14:00,
2013-02-05 02:19:00,48.0,43.1,29.79,WSW,248,4.0,4.0,83,0.00,,---,0.00,VWS V14.00,2013-02-05 10:19:00,
2013-02-05 02:24:00,48.2,43.3,29.79,WNW,292,2.5,2.5,83,0.00,,---,0.00,VWS V14.00,2013-02-05 10:24:00,
2013-02-05 02:30:00,48.2,43.3,29.79,NW,315,5.4,5.6,83,0.00,,---,0.00,VWS V14.00,2013-02-05 10:30:00,
2013-02-05 02:35:00,48.2,43.3,29.79,WSW,248,3.1,3.1,83,0.00,,---,0.00,VWS V14.00,2013-02-05 10:35:00,
2013-02-05 02:40:00,48.4,43.8,29.79,NNW,338,2.2,2.7,84,0.00,,---,0.00,VWS V14.00,2013-02-05 10:40:00,
2013-02-05 02:46:00,48.4,43.8,29.79,NW,315,2.7,3.8,84,0.00,,---,0.00,VWS V14.00,2013-02-05 10:46:00,
2013-02-05 02:51:00,48.4,43.5,29.79,WNW,292,3.4,3.8,83,0.00,,---,0.00,VWS V14.00,2013-02-05 10:51:00,
2013-02-05 02:56:00,48.4,43.5,29.79,WNW,292,3.1,4.7,83,0.00,,---,0.00,VWS V14.00,2013-02-05 10:56:00,
2013-02-05 03:02:00,48.4,43.5,29.79,WNW,292,2.7,6.0,83,0.00,,---,0.00,VWS V14.00,2013-02-05 11:02:00,
2013-02-05 03:07:00,48.6,43.6,29.79,WNW,292,3.4,3.4,83,0.00,,---,0.00,VWS V14.00,2013-02-05 11:07:00,
2013-02-05 03:13:00,48.4,43.5,29.79,NW,315,2.0,2.2,83,0.00,,---,0.00,VWS V14.00,2013-02-05 11:13:00,
2013-02-05 03:18:00,48.4,43.5,29.79,NW,315,0.0,2.2,83,0.00,,---,0.00,VWS V14.00,2013-02-05 11:18:00,
2013-02-05 03:23:00,48.6,43.6,29.79,WNW,292,3.1,3.1,83,0.00,,---,0.00,VWS V14.00,2013-02-05 11:23:00,
2013-02-05 03:28:00,48.7,43.8,29.79,NNW,338,0.0,0.0,83,0.00,,---,0.00,VWS V14.00,2013-02-05 11:28:00,
2013-02-05 03:33:00,48.7,43.8,29.79,NNW,338,0.0,0.0,83,0.00,,---,0.00,VWS V14.00,2013-02-05 11:33:00,
2013-02-05 03:38:00,48.7,43.8,29.79,NNW,338,0.0,0.0,83,0.00,,---,0.00,VWS V14.00,2013-02-05 11:38:00,
2013-02-05 03:43:00,48.7,43.8,29.79,NNW,338,0.0,1.1,83,0.00,,---,0.00,VWS V14.00,2013-02-05 11:43:00,
2013-02-05 03:48:00,48.7,43.8,29.79,NNW,338,0.0,0.0,83,0.00,,---,0.00,VWS V14.00,2013-02-05 11:48:00,
2013-02-05 03:54:00,48.7,43.8,29.79,South,180,0.0,0.0,83,0.00,,---,0.00,VWS V14.00,2013-02-05 11:54:00,
2013-02-05 04:00:00,48.7,43.5,29.79,NW,315,1.6,2.0,82,0.00,,---,0.00,VWS V14.00,2013-02-05 12:00:00,
2013-02-05 04:05:00,48.7,43.5,29.79,NNW,338,2.7,2.9,82,0.00,,---,0.00,VWS V14.00,2013-02-05 12:05:00,
2013-02-05 04:10:00,48.7,43.5,29.79,WNW,292,2.0,2.0,82,0.00,,---,0.00,VWS V14.00,2013-02-05 12:10:00,
2013-02-05 04:15:00,48.7,43.5,29.79,WNW,292,0.9,0.9,82,0.00,,---,0.00,VWS V14.00,2013-02-05 12:15:00,
2013-02-05 04:20:00,48.7,43.5,29.79,WSW,248,0.0,0.0,82,0.00,,---,0.00,VWS V14.00,2013-02-05 12:20:00,
2013-02-05 04:25:00,48.7,43.2,29.79,SSW,202,1.3,1.6,81,0.00,,---,0.00,VWS V14.00,2013-02-05 12:25:00,
2013-02-05 04:30:00,48.7,43.2,29.79,NNW,338,1.3,1.3,81,0.00,,---,0.00,VWS V14.00,2013-02-05 12:30:00,
2013-02-05 04:35:00,48.6,43.0,29.79,West,270,1.1,1.1,81,0.00,,---,0.00,VWS V14.00,2013-02-05 12:35:00,
2013-02-05 04:41:00,48.6,42.7,29.79,SSW,202,2.5,2.9,80,0.00,,---,0.00,VWS V14.00,2013-02-05 12:41:00,
2013-02-05 04:47:00,48.6,42.7,29.79,West,270,0.0,0.0,80,0.00,,---,0.00,VWS V14.00,2013-02-05 12:47:00,
2013-02-05 04:52:00,48.6,42.7,29.79,NW,315,1.1,1.1,80,0.00,,---,0.00,VWS V14.00,2013-02-05 12:52:00,
2013-02-05 04:57:00,48.6,42.7,29.79,NW,315,0.0,0.0,80,0.00,,---,0.00,VWS V14.00,2013-02-05 12:57:00,
2013-02-05 05:03:00,48.6,42.7,29.79,NW,315,0.0,0.9,80,0.00,,---,0.00,VWS V14.00,2013-02-05 13:03:00,
2013-02-05 05:09:00,48.6,43.0,29.79,NNW,338,0.0,0.9,81,0.00,,---,0.00,VWS V14.00,2013-02-05 13:09:00,
2013-02-05 05:14:00,48.6,43.0,29.79,NNW,338,2.5,3.4,81,0.00,,---,0.00,VWS V14.00,2013-02-05 13:14:00,
2013-02-05 05:19:00,48.6,43.0,29.79,NW,315,0.9,2.0,81,0.00,,---,0.00,VWS V14.00,2013-02-05 13:19:00,
2013-02-05 05:24:00,48.7,43.2,29.79,WSW,248,0.0,0.0,81,0.00,,---,0.00,VWS V14.00,2013-02-05 13:24:00,
2013-02-05 05:30:00,48.7,43.2,29.79,WNW,292,1.3,2.0,81,0.00,,---,0.00,VWS V14.00,2013-02-05 13:30:00,
2013-02-05 05:36:00,48.6,42.7,29.79,NW,315,1.3,2.2,80,0.00,,---,0.00,VWS V14.00,2013-02-05 13:36:00,
2013-02-05 05:41:00,48.6,42.7,29.79,WNW,292,0.9,0.9,80,0.00,,---,0.00,VWS V14.00,2013-02-05 13:41:00,
2013-02-05 05:46:00,48.6,42.7,29.79,West,270,1.3,2.7,80,0.00,,---,0.00,VWS V14.00,2013-02-05 13:46:00,
2013-02-05 05:51:00,48.7,42.9,29.79,NW,315,0.0,0.0,80,0.00,,---,0.00,VWS V14.00,2013-02-05 13:51:00,
2013-02-05 05:57:00,48.7,42.9,29.79,NW,315,2.7,2.7,80,0.00,,---,0.00,VWS V14.00,2013-02-05 13:57:00,
2013-02-05 06:02:00,48.7,42.9,29.79,NW,315,4.3,5.4,80,0.00,,---,0.00,VWS V14.00,2013-02-05 14:02:00,
2013-02-05 06:08:00,48.7,42.9,29.79,WNW,292,3.1,3.1,80,0.00,,---,0.00,VWS V14.00,2013-02-05 14:08:00,
2013-02-05 06:13:00,48.7,42.9,29.79,NNW,338,1.6,3.8,80,0.00,,---,0.00,VWS V14.00,2013-02-05 14:13:00,
2013-02-05 06:18:00,48.7,42.9,29.79,WNW,292,2.5,2.5,80,0.00,,---,0.00,VWS V14.00,2013-02-05 14:18:00,
2013-02-05 06:24:00,48.7,42.9,29.79,NNW,338,2.0,2.7,80,0.00,,---,0.00,VWS V14.00,2013-02-05 14:24:00,
2013-02-05 06:29:00,48.7,42.9,29.79,NNW,338,1.6,2.7,80,0.00,,---,0.00,VWS V14.00,2013-02-05 14:29:00,
2013-02-05 06:35:00,48.7,42.9,29.79,WNW,292,2.5,2.5,80,0.00,,---,0.00,VWS V14.00,2013-02-05 14:35:00,
2013-02-05 06:40:00,48.7,42.9,29.82,WNW,292,2.2,2.2,80,0.00,,---,0.00,VWS V14.00,2013-02-05 14:40:00,
2013-02-05 06:45:00,48.7,42.9,29.82,West,270,0.0,0.0,80,0.00,,---,0.00,VWS V14.00,2013-02-05 14:45:00,
2013-02-05 06:50:00,48.9,42.7,29.82,WNW,292,2.5,2.7,79,0.00,,---,0.00,VWS V14.00,2013-02-05 14:50:00,
2013-02-05 06:55:00,48.9,42.7,29.82,NW,315,1.6,2.2,79,0.00,,---,0.00,VWS V14.00,2013-02-05 14:55:00,
2013-02-05 07:00:00,48.7,42.5,29.82,WNW,292,1.3,2.0,79,0.00,,---,0.00,VWS V14.00,2013-02-05 15:00:00,
2013-02-05 07:05:00,48.9,42.7,29.82,NW,315,2.5,3.8,79,0.00,,---,0.00,VWS V14.00,2013-02-05 15:05:00,
2013-02-05 07:11:00,48.9,42.7,29.82,WNW,292,4.3,4.3,79,0.00,,---,0.00,VWS V14.00,2013-02-05 15:11:00,
2013-02-05 07:16:00,48.9,42.7,29.82,NW,315,3.4,3.4,79,0.00,,---,0.00,VWS V14.00,2013-02-05 15:16:00,
2013-02-05 07:21:00,48.9,42.7,29.82,NNW,338,1.1,2.2,79,0.00,,---,0.00,VWS V14.00,2013-02-05 15:21:00,
2013-02-05 07:26:00,48.9,42.7,29.82,WNW,292,3.4,3.4,79,0.00,,---,0.00,VWS V14.00,2013-02-05 15:26:00,
2013-02-05 07:31:00,48.9,42.7,29.82,WNW,292,2.0,2.7,79,0.00,,---,0.00,VWS V14.00,2013-02-05 15:31:00,
2013-02-05 07:36:00,49.1,42.9,29.82,WNW,292,1.6,2.5,79,0.00,,---,0.00,VWS V14.00,2013-02-05 15:36:00,
2013-02-05 07:41:00,49.1,42.9,29.82,NW,315,2.2,4.0,79,0.00,,---,0.00,VWS V14.00,2013-02-05 15:41:00,
2013-02-05 07:46:00,49.1,42.5,29.82,West,270,0.0,0.9,78,0.00,,---,0.00,VWS V14.00,2013-02-05 15:46:00,
2013-02-05 07:51:00,49.1,42.5,29.85,NW,315,4.0,4.0,78,0.00,,---,0.00,VWS V14.00,2013-02-05 15:51:00,
2013-02-05 07:56:00,49.3,42.7,29.85,NW,315,3.6,3.6,78,0.00,,---,0.00,VWS V14.00,2013-02-05 15:56:00,
2013-02-05 08:01:00,49.3,42.4,29.85,NW,315,2.7,2.7,77,0.00,,---,0.00,VWS V14.00,2013-02-05 16:01:00,
2013-02-05 08:06:00,49.5,42.6,29.85,WNW,292,2.9,2.9,77,0.00,,---,0.00,VWS V14.00,2013-02-05 16:06:00,
2013-02-05 08:11:00,49.5,42.6,29.85,NNW,338,7.6,7.6,77,0.00,,---,0.00,VWS V14.00,2013-02-05 16:11:00,
2013-02-05 08:16:00,49.5,42.6,29.85,NW,315,3.8,4.9,77,0.00,,---,0.00,VWS V14.00,2013-02-05 16:16:00,
2013-02-05 08:21:00,49.6,42.4,29.85,WSW,248,2.9,2.9,76,0.00,,---,0.00,VWS V14.00,2013-02-05 16:21:00,
2013-02-05 08:26:00,49.6,42.4,29.85,NW,315,2.9,2.9,76,0.00,,---,0.00,VWS V14.00,2013-02-05 16:26:00,
2013-02-05 08:31:00,49.6,42.4,29.85,SSW,202,2.2,2.2,76,0.00,,---,0.00,VWS V14.00,2013-02-05 16:31:00,
2013-02-05 08:36:00,50.0,42.7,29.85,NNW,338,3.6,3.6,76,0.00,,---,0.00,VWS V14.00,2013-02-05 16:36:00,
2013-02-05 08:42:00,50.2,42.9,29.85,NW,315,3.4,3.4,76,0.00,,---,0.00,VWS V14.00,2013-02-05 16:42:00,
2013-02-05 08:47:00,50.2,42.9,29.85,West,270,1.3,1.3,76,0.00,,---,0.00,VWS V14.00,2013-02-05 16:47:00,
2013-02-05 08:53:00,50.5,43.3,29.85,NW,315,2.7,2.7,76,0.00,,---,0.00,VWS V14.00,2013-02-05 16:53:00,
2013-02-05 08:58:00,50.5,42.9,29.85,WSW,248,1.1,2.0,75,0.00,,---,0.00,VWS V14.00,2013-02-05 16:58:00,
2013-02-05 09:03:00,50.5,42.9,29.85,WSW,248,3.4,4.0,75,0.00,,---,0.00,VWS V14.00,2013-02-05 17:03:00,
2013-02-05 09:09:00,50.9,43.3,29.85,NNW,338,1.6,2.7,75,0.00,,---,0.00,VWS V14.00,2013-02-05 17:09:00,
2013-02-05 09:14:00,50.9,43.3,29.85,WNW,292,2.0,3.6,75,0.00,,---,0.00,VWS V14.00,2013-02-05 17:14:00,
2013-02-05 09:19:00,51.3,43.6,29.85,NNW,338,2.7,2.7,75,0.00,,---,0.00,VWS V14.00,2013-02-05 17:19:00,
2013-02-05 09:25:00,51.6,44.0,29.85,NNW,338,4.7,4.7,75,0.00,,---,0.00,VWS V14.00,2013-02-05 17:25:00,
2013-02-05 09:30:00,51.6,44.0,29.85,NW,315,7.4,7.4,75,0.00,,---,0.00,VWS V14.00,2013-02-05 17:30:00,
2013-02-05 09:36:00,51.6,44.0,29.85,NW,315,4.0,5.8,75,0.00,,---,0.00,VWS V14.00,2013-02-05 17:36:00,
2013-02-05 09:41:00,52.5,44.8,29.85,NNE,22,1.1,3.1,75,0.00,,---,0.00,VWS V14.00,2013-02-05 17:41:00,
2013-02-05 09:46:00,52.7,45.0,29.85,WNW,292,6.0,6.0,75,0.00,,---,0.00,VWS V14.00,2013-02-05 17:46:00,
2013-02-05 09:51:00,53.2,45.5,29.85,WNW,292,3.6,5.6,75,0.00,,---,0.00,VWS V14.00,2013-02-05 17:51:00,
2013-02-05 09:57:00,53.8,46.0,29.85,NNW,338,4.7,4.7,75,0.00,,---,0.00,VWS V14.00,2013-02-05 17:57:00,
2013-02-05 10:02:00,54.1,46.0,29.85,NNW,338,3.6,3.6,74,0.00,,---,0.00,VWS V14.00,2013-02-05 18:02:00,
2013-02-05 10:07:00,54.1,46.0,29.85,NNW,338,5.8,5.8,74,0.00,,---,0.00,VWS V14.00,2013-02-05 18:07:00,
2013-02-05 10:12:00,55.0,46.9,29.85,WNW,292,7.4,7.4,74,0.00,,---,0.00,VWS V14.00,2013-02-05 18:12:00,
2013-02-05 10:17:00,55.6,47.1,29.85,NNW,338,4.9,12.3,73,0.00,,---,0.00,VWS V14.00,2013-02-05 18:17:00,
2013-02-05 10:23:00,55.8,46.9,29.85,NNW,338,8.7,8.7,72,0.00,,---,0.00,VWS V14.00,2013-02-05 18:23:00,
2013-02-05 10:28:00,56.1,47.2,29.85,WNW,292,6.3,13.2,72,0.00,,---,0.00,VWS V14.00,2013-02-05 18:28:00,
2013-02-05 10:33:00,56.1,47.2,29.85,NNW,338,10.7,10.7,72,0.00,,---,0.00,VWS V14.00,2013-02-05 18:33:00,
2013-02-05 10:38:00,56.1,47.2,29.85,NNW,338,10.1,10.5,72,0.00,,---,0.00,VWS V14.00,2013-02-05 18:38:00,
2013-02-05 10:44:00,55.9,45.9,29.85,NNW,338,6.3,6.3,69,0.00,,---,0.00,VWS V14.00,2013-02-05 18:44:00,
2013-02-05 10:49:00,55.9,45.9,29.85,NNW,338,5.8,5.8,69,0.00,,---,0.00,VWS V14.00,2013-02-05 18:49:00,
2013-02-05 10:54:00,56.3,46.7,29.85,WNW,292,7.2,7.2,70,0.00,,---,0.00,VWS V14.00,2013-02-05 18:54:00,
2013-02-05 10:59:00,56.3,46.3,29.85,WNW,292,4.9,7.2,69,0.00,,---,0.00,VWS V14.00,2013-02-05 18:59:00,
2013-02-05 11:04:00,56.3,46.3,29.82,WSW,248,4.0,4.0,69,0.00,,---,0.00,VWS V14.00,2013-02-05 19:04:00,
2013-02-05 11:09:00,56.3,46.3,29.82,NNW,338,6.5,6.5,69,0.00,,---,0.00,VWS V14.00,2013-02-05 19:09:00,
2013-02-05 11:14:00,56.3,46.3,29.82,NNE,22,0.9,0.9,69,0.00,,---,0.00,VWS V14.00,2013-02-05 19:14:00,
2013-02-05 11:19:00,56.3,45.9,29.85,WSW,248,3.4,3.4,68,0.00,,---,0.00,VWS V14.00,2013-02-05 19:19:00,
2013-02-05 11:24:00,56.3,45.9,29.85,WNW,292,0.9,2.5,68,0.00,,---,0.00,VWS V14.00,2013-02-05 19:24:00,
2013-02-05 11:29:00,56.3,45.9,29.85,NW,315,4.0,4.0,68,0.00,,---,0.00,VWS V14.00,2013-02-05 19:29:00,
2013-02-05 11:34:00,56.5,46.1,29.85,WNW,292,4.0,5.6,68,0.00,,---,0.00,VWS V14.00,2013-02-05 19:34:00,
2013-02-05 11:39:00,56.5,46.1,29.85,WNW,292,3.1,4.3,68,0.00,,---,0.00,VWS V14.00,2013-02-05 19:39:00,
2013-02-05 11:45:00,56.5,46.1,29.85,NNW,338,3.1,4.0,68,0.00,,---,0.00,VWS V14.00,2013-02-05 19:45:00,
2013-02-05 11:50:00,56.5,46.1,29.85,NW,315,10.1,10.1,68,0.00,,---,0.00,VWS V14.00,2013-02-05 19:50:00,
2013-02-05 11:55:00,56.5,46.1,29.85,NNW,338,3.4,6.0,68,0.00,,---,0.00,VWS V14.00,2013-02-05 19:55:00,
2013-02-05 12:01:00,56.7,46.2,29.85,WNW,292,3.8,4.9,68,0.00,,---,0.00,VWS V14.00,2013-02-05 20:01:00,
2013-02-05 12:06:00,56.7,46.2,29.82,WSW,248,3.6,3.6,68,0.00,,---,0.00,VWS V14.00,2013-02-05 20:06:00,
2013-02-05 12:11:00,56.5,45.7,29.82,NNW,338,2.5,2.5,67,0.00,,---,0.00,VWS V14.00,2013-02-05 20:11:00,
2013-02-05 12:17:00,56.7,46.2,29.82,WNW,292,3.6,8.1,68,0.00,,---,0.00,VWS V14.00,2013-02-05 20:17:00,
2013-02-05 12:22:00,56.8,46.4,29.82,NW,315,4.0,6.3,68,0.00,,---,0.00,VWS V14.00,2013-02-05 20:22:00,
2013-02-05 12:27:00,56.8,46.4,29.82,WNW,292,2.9,7.4,68,0.00,,---,0.00,VWS V14.00,2013-02-05 20:27:00,
2013-02-05 12:32:00,56.7,45.8,29.82,West,270,4.5,4.5,67,0.00,,---,0.00,VWS V14.00,2013-02-05 20:32:00,
2013-02-05 12:37:00,57.0,46.6,29.82,NW,315,4.3,8.5,68,0.00,,---,0.00,VWS V14.00,2013-02-05 20:37:00,
2013-02-05 12:42:00,57.0,46.2,29.82,WNW,292,7.2,7.2,67,0.00,,---,0.00,VWS V14.00,2013-02-05 20:42:00,
2013-02-05 12:47:00,57.0,46.2,29.82,WNW,292,7.4,7.4,67,0.00,,---,0.00,VWS V14.00,2013-02-05 20:47:00,
2013-02-05 12:52:00,56.8,46.0,29.82,NW,315,5.4,5.4,67,0.00,,---,0.00,VWS V14.00,2013-02-05 20:52:00,
2013-02-05 12:57:00,56.8,46.0,29.82,NNW,338,7.4,7.4,67,0.00,,---,0.00,VWS V14.00,2013-02-05 20:57:00,
2013-02-05 13:02:00,56.8,46.0,29.82,NW,315,4.3,7.8,67,0.00,,---,0.00,VWS V14.00,2013-02-05 21:02:00,
2013-02-05 13:07:00,56.3,45.5,29.82,WNW,292,3.8,12.3,67,0.00,,---,0.00,VWS V14.00,2013-02-05 21:07:00,
2013-02-05 13:13:00,56.3,45.1,29.82,NNW,338,4.0,5.6,66,0.00,,---,0.00,VWS V14.00,2013-02-05 21:13:00,
2013-02-05 13:18:00,56.5,45.7,29.82,WNW,292,3.6,8.5,67,0.00,,---,0.00,VWS V14.00,2013-02-05 21:18:00,
2013-02-05 13:23:00,57.2,46.4,29.82,NW,315,6.3,9.6,67,0.00,,---,0.00,VWS V14.00,2013-02-05 21:23:00,
2013-02-05 13:28:00,57.2,46.0,29.82,WNW,292,5.6,5.6,66,0.00,,---,0.00,VWS V14.00,2013-02-05 21:28:00,
2013-02-05 13:33:00,57.2,46.0,29.82,WNW,292,7.8,7.8,66,0.00,,---,0.00,VWS V14.00,2013-02-05 21:33:00,
2013-02-05 13:39:00,58.6,47.3,29.82,NW,315,3.6,7.6,66,0.00,,---,0.00,VWS V14.00,2013-02-05 21:39:00,
2013-02-05 13:44:00,58.8,47.5,29.82,NNW,338,3.4,4.0,66,0.00,,---,0.00,VWS V14.00,2013-02-05 21:44:00,
2013-02-05 13:49:00,59.2,47.0,29.82,WSW,248,3.1,6.3,64,0.00,,---,0.00,VWS V14.00,2013-02-05 21:49:00,
2013-02-05 13:55:00,59.4,47.2,29.82,NNW,338,3.6,6.0,64,0.00,,---,0.00,VWS V14.00,2013-02-05 21:55:00,
2013-02-05 14:00:00,59.0,46.4,29.82,NNW,338,8.1,8.1,63,0.00,,---,0.00,VWS V14.00,2013-02-05 22:00:00,
2013-02-05 14:05:00,59.2,47.0,29.82,NW,315,8.1,8.1,64,0.00,,---,0.00,VWS V14.00,2013-02-05 22:05:00,
2013-02-05 14:10:00,58.8,46.3,29.82,NW,315,3.1,3.6,63,0.00,,---,0.00,VWS V14.00,2013-02-05 22:10:00,
2013-02-05 14:16:00,58.1,45.6,29.82,WNW,292,7.4,7.4,63,0.00,,---,0.00,VWS V14.00,2013-02-05 22:16:00,
2013-02-05 14:30:00,57.6,45.5,29.82,WNW,292,4.3,4.3,64,0.00,,---,0.00,VWS V14.00,2013-02-05 22:30:00,
2013-02-05 14:35:00,57.7,46.1,29.82,NNW,338,4.0,4.9,65,0.00,,---,0.00,VWS V14.00,2013-02-05 22:35:00,
2013-02-05 14:40:00,57.6,45.9,29.82,WSW,248,4.3,8.1,65,0.00,,---,0.00,VWS V14.00,2013-02-05 22:40:00,
2013-02-05 14:46:00,57.2,45.2,29.82,NNW,338,8.1,8.7,64,0.00,,---,0.00,VWS V14.00,2013-02-05 22:46:00,
2013-02-05 14:52:00,57.4,46.1,29.82,WNW,292,7.2,7.2,66,0.00,,---,0.00,VWS V14.00,2013-02-05 22:52:00,
2013-02-05 14:57:00,57.9,46.6,29.82,WNW,292,4.0,4.0,66,0.00,,---,0.00,VWS V14.00,2013-02-05 22:57:00,
2013-02-05 15:02:00,58.5,47.2,29.82,WNW,292,5.4,5.4,66,0.00,,---,0.00,VWS V14.00,2013-02-05 23:02:00,
2013-02-05 15:08:00,58.5,46.8,29.85,WNW,292,5.4,10.1,65,0.00,,---,0.00,VWS V14.00,2013-02-05 23:08:00,
2013-02-05 15:13:00,59.0,47.3,29.85,WNW,292,6.3,7.6,65,0.00,,---,0.00,VWS V14.00,2013-02-05 23:13:00,
2013-02-05 15:18:00,59.2,47.4,29.82,West,270,3.6,5.8,65,0.00,,---,0.00,VWS V14.00,2013-02-05 23:18:00,
2013-02-05 15:24:00,58.5,46.3,29.82,WNW,292,4.9,6.3,64,0.00,,---,0.00,VWS V14.00,2013-02-05 23:24:00,
2013-02-05 15:29:00,58.5,46.3,29.82,West,270,7.4,8.5,64,0.00,,---,0.00,VWS V14.00,2013-02-05 23:29:00,
2013-02-05 15:34:00,58.1,46.0,29.82,WNW,292,3.8,3.8,64,0.00,,---,0.00,VWS V14.00,2013-02-05 23:34:00,
2013-02-05 15:40:00,58.1,46.4,29.82,NW,315,7.4,7.6,65,0.00,,---,0.00,VWS V14.00,2013-02-05 23:40:00,
2013-02-05 15:45:00,58.5,46.8,29.82,NW,315,4.0,10.3,65,0.00,,---,0.00,VWS V14.00,2013-02-05 23:45:00,
2013-02-05 15:50:00,58.3,46.6,29.82,NNW,338,2.9,6.5,65,0.00,,---,0.00,VWS V14.00,2013-02-05 23:50:00,
2013-02-05 15:57:00,58.6,46.9,29.82,NNW,338,4.0,6.0,65,0.00,,---,0.00,VWS V14.00,2013-02-05 23:57:00,
2013-02-05 16:02:00,58.5,46.8,29.82,NNW,338,3.8,3.8,65,0.00,,---,0.00,VWS V14.00,2013-02-06 00:02:00,
2013-02-05 16:07:00,57.7,46.1,29.82,WNW,292,5.8,7.4,65,0.00,,---,0.00,VWS V14.00,2013-02-06 00:07:00,
2013-02-05 16:13:00,57.6,46.3,29.82,SW,225,6.0,13.0,66,0.00,,---,0.00,VWS V14.00,2013-02-06 00:13:00,
2013-02-05 16:18:00,56.8,45.6,29.82,NNW,338,5.8,6.3,66,0.00,,---,0.00,VWS V14.00,2013-02-06 00:18:00,
2013-02-05 16:24:00,56.5,45.7,29.82,WSW,248,7.6,12.5,67,0.00,,---,0.00,VWS V14.00,2013-02-06 00:24:00,
2013-02-05 16:29:00,56.3,45.9,29.82,NNW,338,3.6,6.3,68,0.00,,---,0.00,VWS V14.00,2013-02-06 00:29:00,
2013-02-05 16:34:00,56.3,45.9,29.82,WNW,292,6.9,6.9,68,0.00,,---,0.00,VWS V14.00,2013-02-06 00:34:00,
2013-02-05 16:39:00,56.1,45.7,29.82,NW,315,3.4,5.4,68,0.00,,---,0.00,VWS V14.00,2013-02-06 00:39:00,
2013-02-05 16:45:00,55.9,45.9,29.82,NW,315,4.9,4.9,69,0.00,,---,0.00,VWS V14.00,2013-02-06 00:45:00,
2013-02-05 16:51:00,55.9,45.9,29.85,WNW,292,2.0,3.1,69,0.00,,---,0.00,VWS V14.00,2013-02-06 00:51:00,
2013-02-05 16:56:00,55.6,45.6,29.85,NNW,338,2.7,2.9,69,0.00,,---,0.00,VWS V14.00,2013-02-06 00:56:00,
2013-02-05 17:01:00,55.2,45.6,29.85,NNW,338,1.1,2.5,70,0.00,,---,0.00,VWS V14.00,2013-02-06 01:01:00,
2013-02-05 17:06:00,55.0,45.5,29.82,WNW,292,3.4,3.8,70,0.00,,---,0.00,VWS V14.00,2013-02-06 01:06:00,
2013-02-05 17:11:00,54.5,44.9,29.82,NW,315,2.5,4.7,70,0.00,,---,0.00,VWS V14.00,2013-02-06 01:11:00,
2013-02-05 17:17:00,54.1,45.0,29.82,NW,315,3.6,3.6,71,0.00,,---,0.00,VWS V14.00,2013-02-06 01:17:00,
2013-02-05 17:22:00,53.8,44.6,29.82,WNW,292,4.0,5.4,71,0.00,,---,0.00,VWS V14.00,2013-02-06 01:22:00,
2013-02-05 17:27:00,53.6,44.4,29.82,SW,225,5.6,9.0,71,0.00,,---,0.00,VWS V14.00,2013-02-06 01:27:00,
2013-02-05 17:32:00,53.2,44.5,29.82,WNW,292,7.2,7.2,72,0.00,,---,0.00,VWS V14.00,2013-02-06 01:32:00,
2013-02-05 17:37:00,53.2,44.8,29.82,NW,315,3.6,3.6,73,0.00,,---,0.00,VWS V14.00,2013-02-06 01:37:00,
2013-02-05 17:43:00,53.1,44.7,29.82,NNW,338,3.8,3.8,73,0.00,,---,0.00,VWS V14.00,2013-02-06 01:43:00,
2013-02-05 17:48:00,53.1,45.0,29.82,NNW,338,5.4,6.3,74,0.00,,---,0.00,VWS V14.00,2013-02-06 01:48:00,
2013-02-05 17:53:00,52.9,44.8,29.82,WNW,292,7.6,10.5,74,0.00,,---,0.00,VWS V14.00,2013-02-06 01:53:00,
2013-02-05 17:59:00,52.9,44.8,29.82,WNW,292,7.2,8.5,74,0.00,,---,0.00,VWS V14.00,2013-02-06 01:59:00,
2013-02-05 18:04:00,52.7,44.7,29.82,NW,315,8.7,8.7,74,0.00,,---,0.00,VWS V14.00,2013-02-06 02:04:00,
2013-02-05 18:09:00,52.5,44.8,29.82,NW,315,6.7,8.1,75,0.00,,---,0.00,VWS V14.00,2013-02-06 02:09:00,
2013-02-05 18:15:00,52.5,44.8,29.82,NNE,22,5.4,10.5,75,0.00,,---,0.00,VWS V14.00,2013-02-06 02:15:00,
2013-02-05 18:20:00,52.3,45.0,29.82,NNW,338,4.9,8.1,76,0.00,,---,0.00,VWS V14.00,2013-02-06 02:20:00,
2013-02-05 18:25:00,52.3,45.0,29.82,NW,315,6.7,7.4,76,0.00,,---,0.00,VWS V14.00,2013-02-06 02:25:00,
2013-02-05 18:31:00,52.2,44.8,29.82,WNW,292,6.0,6.3,76,0.00,,---,0.00,VWS V14.00,2013-02-06 02:31:00,
2013-02-05 18:37:00,52.0,45.0,29.82,WNW,292,3.6,5.8,77,0.00,,---,0.00,VWS V14.00,2013-02-06 02:37:00,
2013-02-05 18:42:00,52.0,45.0,29.82,West,270,4.0,8.1,77,0.00,,---,0.00,VWS V14.00,2013-02-06 02:42:00,
2013-02-05 18:48:00,51.8,44.8,29.82,WNW,292,8.1,9.2,77,0.00,,---,0.00,VWS V14.00,2013-02-06 02:48:00,
2013-02-05 18:53:00,51.8,45.2,29.82,WNW,292,5.6,8.1,78,0.00,,---,0.00,VWS V14.00,2013-02-06 02:53:00,
2013-02-05 18:59:00,51.8,45.2,29.82,WNW,292,4.0,6.0,78,0.00,,---,0.00,VWS V14.00,2013-02-06 02:59:00,
2013-02-05 19:05:00,51.6,45.3,29.82,WNW,292,3.8,4.7,79,0.00,,---,0.00,VWS V14.00,2013-02-06 03:05:00,
2013-02-05 19:10:00,51.6,45.0,29.82,WNW,292,5.6,7.6,78,0.00,,---,0.00,VWS V14.00,2013-02-06 03:10:00,
2013-02-05 19:16:00,51.8,45.2,29.82,WNW,292,5.6,8.7,78,0.00,,---,0.00,VWS V14.00,2013-02-06 03:16:00,
2013-02-05 19:21:00,51.8,45.2,29.82,WNW,292,7.6,9.0,78,0.00,,---,0.00,VWS V14.00,2013-02-06 03:21:00,
2013-02-05 19:27:00,51.8,44.8,29.82,NNW,338,6.5,7.8,77,0.00,,---,0.00,VWS V14.00,2013-02-06 03:27:00,
2013-02-05 19:32:00,51.8,44.8,29.82,WNW,292,6.0,6.5,77,0.00,,---,0.00,VWS V14.00,2013-02-06 03:32:00,
2013-02-05 19:38:00,51.6,44.7,29.82,West,270,10.1,10.1,77,0.00,,---,0.00,VWS V14.00,2013-02-06 03:38:00,
2013-02-05 19:43:00,51.4,44.5,29.82,WNW,292,7.6,12.3,77,0.00,,---,0.00,VWS V14.00,2013-02-06 03:43:00,
2013-02-05 19:49:00,51.3,44.6,29.82,NNW,338,6.3,9.4,78,0.00,,---,0.00,VWS V14.00,2013-02-06 03:49:00,
2013-02-05 19:54:00,51.3,44.6,29.82,NW,315,10.1,10.1,78,0.00,,---,0.00,VWS V14.00,2013-02-06 03:54:00,
2013-02-05 19:59:00,51.1,44.1,29.82,NW,315,3.8,6.5,77,0.00,,---,0.00,VWS V14.00,2013-02-06 03:59:00,
2013-02-05 20:05:00,51.1,44.1,29.82,NW,315,6.0,6.0,77,0.00,,---,0.00,VWS V14.00,2013-02-06 04:05:00,
2013-02-05 20:11:00,51.1,43.8,29.82,WNW,292,4.7,6.0,76,0.00,,---,0.00,VWS V14.00,2013-02-06 04:11:00,
2013-02-05 20:16:00,50.9,43.3,29.82,WNW,292,5.6,7.6,75,0.00,,---,0.00,VWS V14.00,2013-02-06 04:16:00,
2013-02-05 20:22:00,50.9,43.3,29.85,West,270,6.0,8.7,75,0.00,,---,0.00,VWS V14.00,2013-02-06 04:22:00,
2013-02-05 20:27:00,50.7,42.8,29.85,NW,315,5.4,9.8,74,0.00,,---,0.00,VWS V14.00,2013-02-06 04:27:00,
2013-02-05 20:33:00,50.7,42.8,29.85,WNW,292,7.4,10.7,74,0.00,,---,0.00,VWS V14.00,2013-02-06 04:33:00,
2013-02-05 20:38:00,50.7,42.4,29.85,WNW,292,2.9,4.9,73,0.00,,---,0.00,VWS V14.00,2013-02-06 04:38:00,
2013-02-05 20:43:00,50.5,42.6,29.85,WNW,292,3.8,5.8,74,0.00,,---,0.00,VWS V14.00,2013-02-06 04:43:00,
2013-02-05 20:49:00,50.7,42.8,29.85,NW,315,4.0,8.5,74,0.00,,---,0.00,VWS V14.00,2013-02-06 04:49:00,
2013-02-05 20:55:00,50.7,42.8,29.85,WNW,292,6.0,6.0,74,0.00,,---,0.00,VWS V14.00,2013-02-06 04:55:00,
2013-02-05 21:00:00,50.4,42.0,29.85,WSW,248,2.9,8.7,73,0.00,,---,0.00,VWS V14.00,2013-02-06 05:00:00,
2013-02-05 21:03:00,50.4,41.7,29.85,WNW,292,7.8,7.8,72,0.00,,---,0.00,VWS V14.00,2013-02-06 05:03:00,
2013-02-05 21:08:00,50.2,41.5,29.85,NW,315,6.0,7.8,72,0.00,,---,0.00,VWS V14.00,2013-02-06 05:08:00,
2013-02-05 21:11:00,50.2,41.5,29.85,SSW,202,6.0,6.0,72,0.00,,---,0.00,VWS V14.00,2013-02-06 05:11:00,
2013-02-05 21:16:00,50.0,41.3,29.85,WNW,292,8.1,8.1,72,0.00,,---,0.00,VWS V14.00,2013-02-06 05:16:00,
2013-02-05 21:21:00,50.0,41.7,29.85,WNW,292,6.3,7.4,73,0.00,,---,0.00,VWS V14.00,2013-02-06 05:21:00,
2013-02-05 21:26:00,49.8,41.5,29.85,NW,315,8.1,8.1,73,0.00,,---,0.00,VWS V14.00,2013-02-06 05:26:00,
2013-02-05 21:32:00,49.8,41.9,29.85,NW,315,6.5,6.5,74,0.00,,---,0.00,VWS V14.00,2013-02-06 05:32:00,
2013-02-05 21:37:00,49.8,41.9,29.85,WNW,292,3.6,7.6,74,0.00,,---,0.00,VWS V14.00,2013-02-06 05:37:00,
2013-02-05 21:43:00,49.8,41.9,29.85,West,270,4.3,9.8,74,0.00,,---,0.00,VWS V14.00,2013-02-06 05:43:00,
2013-02-05 21:48:00,49.8,41.9,29.85,WNW,292,5.6,5.8,74,0.00,,---,0.00,VWS V14.00,2013-02-06 05:48:00,
2013-02-05 21:53:00,49.8,41.9,29.85,WNW,292,4.0,5.6,74,0.00,,---,0.00,VWS V14.00,2013-02-06 05:53:00,
2013-02-05 21:58:00,49.6,41.7,29.85,WNW,292,5.4,10.1,74,0.00,,---,0.00,VWS V14.00,2013-02-06 05:58:00,
2013-02-05 22:04:00,49.6,42.0,29.88,WNW,292,4.9,10.7,75,0.00,,---,0.00,VWS V14.00,2013-02-06 06:04:00,
2013-02-05 22:09:00,49.6,42.0,29.88,WNW,292,10.1,12.5,75,0.00,,---,0.00,VWS V14.00,2013-02-06 06:09:00,
2013-02-05 22:14:00,49.6,42.0,29.88,WNW,292,6.5,6.5,75,0.00,,---,0.00,VWS V14.00,2013-02-06 06:14:00,
2013-02-05 22:19:00,49.6,42.4,29.85,WNW,292,6.5,6.5,76,0.00,,---,0.00,VWS V14.00,2013-02-06 06:19:00,
2013-02-05 22:24:00,49.6,42.4,29.85,WNW,292,3.6,5.6,76,0.00,,---,0.00,VWS V14.00,2013-02-06 06:24:00,
2013-02-05 22:29:00,49.6,42.4,29.85,NNW,338,7.2,7.2,76,0.00,,---,0.00,VWS V14.00,2013-02-06 06:29:00,
2013-02-05 22:34:00,49.6,42.4,29.85,NW,315,7.8,9.2,76,0.00,,---,0.00,VWS V14.00,2013-02-06 06:34:00,
2013-02-05 22:39:00,49.5,42.6,29.85,WNW,292,3.4,8.1,77,0.00,,---,0.00,VWS V14.00,2013-02-06 06:39:00,
2013-02-05 22:45:00,49.5,42.6,29.85,WNW,292,4.9,9.8,77,0.00,,---,0.00,VWS V14.00,2013-02-06 06:45:00,
2013-02-05 22:50:00,49.5,42.9,29.88,WNW,292,8.7,9.6,78,0.00,,---,0.00,VWS V14.00,2013-02-06 06:50:00,
2013-02-05 22:56:00,49.5,42.9,29.88,NW,315,4.0,7.6,78,0.00,,---,0.00,VWS V14.00,2013-02-06 06:56:00,
2013-02-05 23:01:00,49.3,42.7,29.88,NNW,338,5.8,6.0,78,0.00,,---,0.00,VWS V14.00,2013-02-06 07:01:00,
2013-02-05 23:06:00,49.3,42.7,29.88,WNW,292,3.6,7.2,78,0.00,,---,0.00,VWS V14.00,2013-02-06 07:06:00,
2013-02-05 23:12:00,49.3,42.7,29.88,WNW,292,4.3,10.5,78,0.00,,---,0.00,VWS V14.00,2013-02-06 07:12:00,
2013-02-05 23:17:00,49.3,42.7,29.88,WNW,292,2.9,4.3,78,0.00,,---,0.00,VWS V14.00,2013-02-06 07:17:00,
2013-02-05 23:22:00,49.1,42.5,29.88,WNW,292,3.4,6.3,78,0.00,,---,0.00,VWS V14.00,2013-02-06 07:22:00,
2013-02-05 23:28:00,49.1,42.5,29.88,WNW,292,6.3,7.6,78,0.00,,---,0.00,VWS V14.00,2013-02-06 07:28:00,
2013-02-05 23:33:00,49.1,42.5,29.88,North,0,3.1,8.1,78,0.00,,---,0.00,VWS V14.00,2013-02-06 07:33:00,
2013-02-05 23:38:00,49.1,42.5,29.88,WNW,292,6.3,6.3,78,0.00,,---,0.00,VWS V14.00,2013-02-06 07:38:00,
2013-02-05 23:43:00,49.1,42.5,29.88,WNW,292,6.5,7.6,78,0.00,,---,0.00,VWS V14.00,2013-02-06 07:43:00,
2013-02-05 23:49:00,49.1,42.9,29.88,WNW,292,5.6,13.6,79,0.00,,---,0.00,VWS V14.00,2013-02-06 07:49:00,
2013-02-05 23:54:00,49.1,42.9,29.88,WNW,292,5.4,5.4,79,0.00,,---,0.00,VWS V14.00,2013-02-06 07:54:00,
2013-02-05 23:59:00,48.9,42.7,29.88,NNW,338,5.8,5.8,79,0.00,,---,0.00,VWS V14.00,2013-02-06 07:59:00,